| time (UTC) | temp F | wind direction | speed knots | gust knots | rain 1hr in | rain 24hr in | rain mn in | humidity % | barometer mb |
| 20260508073552 | 53 | 129 | 0.0 | 4.3 | 0.00 | 0.00 | 0.00 | 80 | 1019.3 |
| 20260508073053 | 52 | 107 | 0.0 | 4.3 | 0.00 | 0.00 | 0.00 | 80 | 1019.4 |
| 20260508072550 | 52 | 67 | 0.0 | 2.6 | 0.00 | 0.00 | 0.00 | 80 | 1019.3 |
| 20260508072048 | 52 | 85 | 0.0 | 2.6 | 0.00 | 0.00 | 0.00 | 80 | 1019.3 |
| 20260508071552 | 52 | 49 | 0.0 | 2.6 | 0.00 | 0.00 | 0.00 | 81 | 1019.3 |
| 20260508071046 | 52 | 202 | 0.0 | 2.6 | 0.00 | 0.00 | 0.00 | 82 | 1019.3 |
| 20260508070546 | 51 | 355 | 0.0 | 5.2 | 0.00 | 0.00 | 0.00 | 82 | 1019.3 |
| 20260508070046 | 51 | 55 | 0.9 | 4.3 | 0.00 | 0.00 | 0.00 | 82 | 1019.3 |
| 20260508065543 | 51 | 138 | 0.9 | 2.6 | 0.00 | 0.00 | 0.00 | 82 | 1019.2 |
| 20260508065042 | 51 | 286 | 0.0 | 1.7 | 0.00 | 0.00 | 0.00 | 83 | 1019.1 |
| 20260508064543 | 51 | 70 | 0.0 | 3.5 | 0.00 | 0.00 | 0.00 | 84 | 1019.1 |
| 20260508064041 | 51 | 76 | 0.0 | 3.5 | 0.00 | 0.00 | 0.00 | 84 | 1019.1 |
| 20260508063539 | 51 | 112 | 0.0 | 2.6 | 0.00 | 0.00 | 0.00 | 84 | 1019.1 |
| 20260508063112 | 51 | 46 | 0.0 | 2.6 | 0.00 | 0.00 | 0.00 | 84 | 1019.0 |
| 20260508062537 | 50 | 26 | 0.0 | 2.6 | 0.00 | 0.00 | 0.00 | 84 | 1019.1 |
| 20260508062039 | 51 | 48 | 0.0 | 1.7 | 0.00 | 0.00 | 0.00 | 85 | 1019.0 |
| 20260508061534 | 50 | 112 | 0.0 | 1.7 | 0.00 | 0.00 | 0.00 | 85 | 1019.0 |
| 20260508061034 | 50 | 108 | 0.0 | 4.3 | 0.00 | 0.00 | 0.00 | 85 | 1019.0 |
| 20260508060537 | 50 | 66 | 0.0 | 4.3 | 0.00 | 0.00 | 0.00 | 85 | 1019.0 |
| 20260508060034 | 50 | 107 | 0.0 | 2.6 | 0.00 | 0.00 | 0.00 | 85 | 1018.9 |
| 20260508055531 | 50 | 60 | 0.0 | 3.5 | 0.00 | 0.00 | 0.00 | 85 | 1018.9 |
| 20260508055033 | 50 | 331 | 0.0 | 2.6 | 0.00 | 0.00 | 0.00 | 85 | 1018.9 |
| 20260508054529 | 50 | 79 | 0.0 | 3.5 | 0.00 | 0.00 | 0.00 | 85 | 1018.9 |
| 20260508054028 | 50 | 31 | 0.0 | 3.5 | 0.00 | 0.00 | 0.00 | 85 | 1018.8 |
| 20260508053527 | 50 | 84 | 0.0 | 2.6 | 0.00 | 0.00 | 0.00 | 85 | 1018.8 |
| 20260508053041 | 50 | 103 | 0.0 | 3.5 | 0.00 | 0.00 | 0.00 | 85 | 1018.8 |
| 20260508052524 | 50 | 28 | 0.0 | 3.5 | 0.00 | 0.00 | 0.00 | 85 | 1018.7 |
| 20260508052026 | 50 | 263 | 0.0 | 2.6 | 0.00 | 0.00 | 0.00 | 84 | 1018.6 |
| 20260508051522 | 50 | 13 | 0.0 | 2.6 | 0.00 | 0.00 | 0.00 | 84 | 1018.6 |
| 20260508051022 | 50 | 70 | 0.0 | 2.6 | 0.00 | 0.00 | 0.00 | 84 | 1018.6 |
| 20260508050521 | 50 | 80 | 0.0 | 2.6 | 0.00 | 0.00 | 0.00 | 84 | 1018.5 |
| 20260508050023 | 50 | 80 | 0.0 | 2.6 | 0.00 | 0.00 | 0.00 | 83 | 1018.5 |
| 20260508045519 | 50 | 55 | 0.9 | 2.6 | 0.00 | 0.00 | 0.00 | 83 | 1018.4 |
| 20260508045020 | 50 | 22 | 0.0 | 2.6 | 0.00 | 0.00 | 0.00 | 83 | 1018.4 |
| 20260508044517 | 50 | 85 | 0.0 | 1.7 | 0.00 | 0.00 | 0.00 | 83 | 1018.4 |
| 20260508044016 | 50 | 68 | 0.0 | 2.6 | 0.00 | 0.00 | 0.00 | 83 | 1018.4 |
| 20260508043518 | 50 | 82 | 0.9 | 2.6 | 0.00 | 0.00 | 0.00 | 83 | 1018.4 |
| 20260508043014 | 50 | 34 | 0.0 | 2.6 | 0.00 | 0.00 | 0.00 | 83 | 1018.4 |
| 20260508042514 | 50 | 38 | 0.0 | 2.6 | 0.00 | 0.00 | 0.00 | 83 | 1018.3 |
| 20260508042019 | 50 | 82 | 0.0 | 1.7 | 0.00 | 0.00 | 0.00 | 83 | 1018.3 |
| 20260508041518 | 50 | 67 | 0.0 | 1.7 | 0.00 | 0.00 | 0.00 | 83 | 1018.3 |
| 20260508041012 | 50 | 65 | 0.0 | 2.6 | 0.00 | 0.00 | 0.00 | 83 | 1018.3 |
| 20260508040512 | 50 | 288 | 0.0 | 2.6 | 0.00 | 0.00 | 0.00 | 83 | 1018.3 |
| 20260508040011 | 50 | 114 | 0.0 | 1.7 | 0.00 | 0.00 | 0.00 | 83 | 1018.3 |
| 20260508035511 | 50 | 355 | 0.0 | 1.7 | 0.00 | 0.00 | 0.00 | 83 | 1018.3 |
| 20260508035013 | 50 | 307 | 0.0 | 1.7 | 0.00 | 0.00 | 0.00 | 83 | 1018.2 |
| 20260508034516 | 50 | 80 | 0.0 | 1.7 | 0.00 | 0.00 | 0.00 | 83 | 1018.2 |
| 20260508034011 | 51 | 355 | 0.0 | 2.6 | 0.00 | 0.00 | 0.00 | 83 | 1018.2 |
| 20260508033509 | 51 | 327 | 0.0 | 2.6 | 0.00 | 0.00 | 0.00 | 83 | 1018.3 |
| 20260508033020 | 51 | 81 | 0.0 | 3.5 | 0.00 | 0.00 | 0.00 | 83 | 1018.2 |
| 20260508032508 | 51 | 62 | 0.0 | 3.5 | 0.00 | 0.00 | 0.00 | 82 | 1018.2 |
| 20260508032008 | 51 | 48 | 0.0 | 0.9 | 0.00 | 0.00 | 0.00 | 82 | 1018.1 |
| 20260508031508 | 51 | 5 | 0.0 | 2.6 | 0.00 | 0.00 | 0.00 | 82 | 1018.2 |
| 20260508031008 | 51 | 60 | 0.0 | 2.6 | 0.00 | 0.00 | 0.00 | 82 | 1018.1 |
| 20260508030508 | 51 | 80 | 0.0 | 2.6 | 0.00 | 0.00 | 0.00 | 82 | 1018.1 |
| 20260508030121 | 51 | 40 | 0.0 | 4.3 | 0.00 | 0.00 | 0.00 | 82 | 1018.1 |
| 20260508025507 | 51 | 70 | 0.9 | 4.3 | 0.00 | 0.00 | 0.00 | 82 | 1018.1 |
| 20260508025006 | 51 | 53 | 0.9 | 3.5 | 0.00 | 0.00 | 0.00 | 82 | 1018.0 |
| 20260508024509 | 51 | 70 | 0.0 | 1.7 | 0.00 | 0.00 | 0.00 | 82 | 1018.0 |
| 20260508024005 | 51 | 91 | 0.0 | 2.6 | 0.00 | 0.00 | 0.00 | 82 | 1018.0 |
| 20260508023506 | 51 | 53 | 0.0 | 5.2 | 0.00 | 0.00 | 0.00 | 82 | 1018.0 |
| 20260508023006 | 51 | 22 | 0.0 | 5.2 | 0.00 | 0.00 | 0.00 | 81 | 1018.1 |
| 20260508022510 | 51 | 40 | 0.0 | 1.7 | 0.00 | 0.00 | 0.00 | 81 | 1018.1 |
| 20260508022004 | 51 | 59 | 0.0 | 2.6 | 0.00 | 0.00 | 0.00 | 81 | 1018.1 |
| 20260508021504 | 51 | 70 | 0.0 | 2.6 | 0.00 | 0.00 | 0.00 | 81 | 1018.0 |
| 20260508021006 | 51 | 24 | 0.0 | 1.7 | 0.00 | 0.00 | 0.00 | 81 | 1018.1 |
| 20260508020506 | 52 | 43 | 0.0 | 1.7 | 0.00 | 0.00 | 0.00 | 81 | 1018.0 |
| 20260508020002 | 52 | 38 | 0.0 | 2.6 | 0.00 | 0.00 | 0.00 | 81 | 1018.0 |
| 20260508015501 | 52 | 306 | 0.0 | 2.6 | 0.00 | 0.00 | 0.00 | 80 | 1018.1 |
| 20260508015002 | 52 | 37 | 0.0 | 2.6 | 0.00 | 0.00 | 0.00 | 80 | 1018.0 |
| 20260508014505 | 52 | 76 | 0.0 | 4.3 | 0.00 | 0.00 | 0.00 | 80 | 1018.1 |
| 20260508014002 | 52 | 69 | 0.9 | 4.3 | 0.00 | 0.00 | 0.00 | 80 | 1018.1 |
| 20260508013600 | 52 | 81 | 0.0 | 2.6 | 0.00 | 0.00 | 0.00 | 80 | 1018.1 |
| 20260508013100 | 52 | 312 | 0.0 | 0.9 | 0.00 | 0.00 | 0.00 | 80 | 1018.1 |
| 20260508012604 | 52 | 39 | 0.0 | 3.5 | 0.00 | 0.00 | 0.00 | 80 | 1018.1 |
| 20260508012104 | 52 | 31 | 0.0 | 3.5 | 0.00 | 0.00 | 0.00 | 80 | 1018.1 |
| 20260508011559 | 52 | 82 | 0.0 | 1.7 | 0.00 | 0.00 | 0.00 | 79 | 1018.1 |
| 20260508011059 | 52 | 96 | 0.0 | 1.7 | 0.00 | 0.00 | 0.00 | 79 | 1018.1 |
| 20260508010558 | 52 | 341 | 0.0 | 1.7 | 0.00 | 0.00 | 0.00 | 79 | 1018.1 |
| 20260508010109 | 53 | 55 | 0.0 | 0.0 | 0.00 | 0.00 | 0.00 | 79 | 1018.1 |
| 20260508005600 | 53 | 55 | 0.0 | 2.6 | 0.00 | 0.00 | 0.00 | 79 | 1018.1 |
| 20260508005056 | 53 | 55 | 0.0 | 2.6 | 0.00 | 0.00 | 0.00 | 79 | 1018.1 |
| 20260508004556 | 53 | 313 | 0.0 | 1.7 | 0.00 | 0.00 | 0.00 | 79 | 1018.2 |
| 20260508004056 | 53 | 47 | 0.0 | 0.9 | 0.00 | 0.00 | 0.00 | 78 | 1018.1 |
| 20260508003555 | 53 | 76 | 0.0 | 1.7 | 0.00 | 0.00 | 0.00 | 78 | 1018.2 |
| 20260508003103 | 53 | 88 | 0.0 | 1.7 | 0.00 | 0.00 | 0.00 | 78 | 1018.2 |
| 20260508002555 | 53 | 29 | 0.0 | 2.6 | 0.00 | 0.00 | 0.00 | 78 | 1018.1 |
| 20260508002054 | 53 | 79 | 0.0 | 3.5 | 0.00 | 0.00 | 0.00 | 78 | 1018.2 |
| 20260508001557 | 53 | 337 | 0.9 | 3.5 | 0.00 | 0.00 | 0.00 | 78 | 1018.2 |
| 20260508001054 | 53 | 46 | 0.0 | 2.6 | 0.00 | 0.00 | 0.00 | 78 | 1018.2 |
| 20260508000554 | 53 | 335 | 0.0 | 2.6 | 0.00 | 0.00 | 0.00 | 78 | 1018.1 |
| 20260508000053 | 53 | 16 | 0.0 | 2.6 | 0.00 | 0.00 | 0.00 | 78 | 1018.1 |
| 20260507235553 | 53 | 355 | 0.0 | 2.6 | 0.00 | 0.00 | 0.00 | 78 | 1018.1 |
| 20260507235052 | 53 | 34 | 0.0 | 3.5 | 0.00 | 0.00 | 0.00 | 77 | 1018.2 |
| 20260507234552 | 53 | 31 | 0.0 | 3.5 | 0.00 | 0.00 | 0.00 | 77 | 1018.2 |
| 20260507234054 | 54 | 61 | 0.0 | 1.7 | 0.00 | 0.00 | 0.00 | 77 | 1018.2 |
| 20260507233551 | 54 | 41 | 0.0 | 3.5 | 0.00 | 0.00 | 0.00 | 77 | 1018.2 |
| 20260507233051 | 54 | 21 | 0.0 | 3.5 | 0.00 | 0.00 | 0.00 | 77 | 1018.2 |
| 20260507232550 | 54 | 51 | 0.9 | 3.5 | 0.00 | 0.00 | 0.00 | 77 | 1018.2 |
| 20260507232050 | 54 | 61 | 0.0 | 2.6 | 0.00 | 0.00 | 0.00 | 77 | 1018.2 |
| 20260507231551 | 54 | 11 | 0.0 | 1.7 | 0.00 | 0.00 | 0.00 | 77 | 1018.3 |
| 20260507231050 | 54 | 339 | 0.0 | 2.6 | 0.00 | 0.00 | 0.00 | 77 | 1018.3 |
| 20260507230550 | 54 | 32 | 0.0 | 2.6 | 0.00 | 0.00 | 0.00 | 77 | 1018.3 |
| 20260507230106 | 54 | 20 | 0.0 | 2.6 | 0.00 | 0.00 | 0.00 | 77 | 1018.2 |
| 20260507225548 | 54 | 43 | 0.0 | 4.3 | 0.00 | 0.00 | 0.00 | 77 | 1018.2 |
| 20260507225049 | 54 | 85 | 0.0 | 4.3 | 0.00 | 0.00 | 0.00 | 77 | 1018.2 |
| 20260507224549 | 54 | 23 | 0.0 | 3.5 | 0.00 | 0.00 | 0.00 | 77 | 1018.2 |
| 20260507224048 | 54 | 73 | 0.9 | 3.5 | 0.00 | 0.00 | 0.00 | 77 | 1018.2 |
| 20260507223548 | 54 | 344 | 0.0 | 3.5 | 0.00 | 0.00 | 0.00 | 77 | 1018.2 |
| 20260507223133 | 54 | 332 | 0.0 | 2.6 | 0.00 | 0.00 | 0.00 | 77 | 1018.2 |
| 20260507222547 | 54 | 342 | 0.0 | 4.3 | 0.00 | 0.00 | 0.00 | 77 | 1018.2 |
| 20260507222046 | 54 | 60 | 0.0 | 4.3 | 0.00 | 0.00 | 0.00 | 78 | 1018.2 |
| 20260507221547 | 54 | 58 | 0.9 | 4.3 | 0.00 | 0.00 | 0.00 | 78 | 1018.2 |
| 20260507221046 | 54 | 42 | 0.0 | 1.7 | 0.00 | 0.00 | 0.00 | 78 | 1018.2 |
| 20260507220545 | 54 | 47 | 0.0 | 1.7 | 0.00 | 0.00 | 0.00 | 77 | 1018.2 |
| 20260507220045 | 54 | 44 | 0.0 | 2.6 | 0.00 | 0.00 | 0.00 | 77 | 1018.2 |
| 20260507215544 | 54 | 71 | 0.0 | 2.6 | 0.00 | 0.00 | 0.00 | 77 | 1018.1 |
| 20260507215045 | 54 | 59 | 0.0 | 2.6 | 0.00 | 0.00 | 0.00 | 77 | 1018.1 |
| 20260507214552 | 54 | 46 | 0.0 | 2.6 | 0.00 | 0.00 | 0.00 | 77 | 1018.1 |
| 20260507214043 | 54 | 40 | 0.0 | 2.6 | 0.00 | 0.00 | 0.00 | 76 | 1018.1 |
| 20260507213543 | 54 | 355 | 0.0 | 4.3 | 0.00 | 0.00 | 0.00 | 76 | 1018.1 |
| 20260507213042 | 54 | 53 | 0.9 | 4.3 | 0.00 | 0.00 | 0.00 | 76 | 1018.1 |
| 20260507212542 | 54 | 40 | 0.9 | 2.6 | 0.00 | 0.00 | 0.00 | 75 | 1018.1 |
| 20260507212043 | 54 | 34 | 0.0 | 2.6 | 0.00 | 0.00 | 0.00 | 75 | 1018.1 |
| 20260507211547 | 54 | 26 | 0.0 | 3.5 | 0.00 | 0.00 | 0.00 | 75 | 1018.1 |
| 20260507211042 | 54 | 28 | 0.0 | 3.5 | 0.00 | 0.00 | 0.00 | 74 | 1018.1 |
| 20260507210545 | 55 | 65 | 0.0 | 4.3 | 0.00 | 0.00 | 0.00 | 74 | 1018.1 |
| 20260507210046 | 55 | 60 | 0.9 | 4.3 | 0.00 | 0.00 | 0.00 | 74 | 1018.1 |
| 20260507205542 | 55 | 43 | 0.0 | 3.5 | 0.00 | 0.00 | 0.00 | 73 | 1018.1 |
| 20260507205042 | 55 | 63 | 0.9 | 2.6 | 0.00 | 0.00 | 0.00 | 73 | 1018.1 |
| 20260507204544 | 55 | 321 | 0.0 | 3.5 | 0.00 | 0.00 | 0.00 | 73 | 1018.0 |
| 20260507204040 | 55 | 71 | 0.9 | 3.5 | 0.00 | 0.00 | 0.00 | 72 | 1018.0 |
| 20260507203541 | 55 | 336 | 0.0 | 2.6 | 0.00 | 0.00 | 0.00 | 72 | 1017.9 |
| 20260507203043 | 55 | 46 | 0.9 | 3.5 | 0.00 | 0.00 | 0.00 | 72 | 1018.0 |
| 20260507202539 | 55 | 51 | 0.9 | 3.5 | 0.00 | 0.00 | 0.00 | 71 | 1018.0 |
| 20260507202043 | 55 | 24 | 0.9 | 4.3 | 0.00 | 0.00 | 0.00 | 71 | 1017.9 |
| 20260507201542 | 55 | 67 | 0.9 | 6.1 | 0.00 | 0.00 | 0.00 | 70 | 1017.8 |
| 20260507201038 | 55 | 58 | 0.9 | 6.1 | 0.00 | 0.00 | 0.00 | 70 | 1017.7 |
| 20260507200537 | 55 | 64 | 0.9 | 5.2 | 0.00 | 0.00 | 0.00 | 69 | 1017.7 |
| 20260507200051 | 55 | 38 | 1.7 | 5.2 | 0.00 | 0.00 | 0.00 | 69 | 1017.6 |
| 20260507195536 | 55 | 65 | 1.7 | 7.0 | 0.00 | 0.00 | 0.00 | 68 | 1017.6 |
| 20260507195036 | 56 | 19 | 0.9 | 7.0 | 0.00 | 0.00 | 0.00 | 67 | 1017.6 |
| 20260507194535 | 56 | 53 | 0.9 | 7.0 | 0.00 | 0.00 | 0.00 | 67 | 1017.6 |
| 20260507194034 | 56 | 33 | 1.7 | 7.0 | 0.00 | 0.00 | 0.00 | 67 | 1017.5 |
| 20260507193534 | 56 | 59 | 1.7 | 7.8 | 0.00 | 0.00 | 0.00 | 66 | 1017.5 |
| 20260507193043 | 56 | 54 | 1.7 | 7.8 | 0.00 | 0.00 | 0.00 | 66 | 1017.5 |
| 20260507192533 | 57 | 110 | 0.9 | 5.2 | 0.00 | 0.00 | 0.00 | 65 | 1017.4 |
| 20260507192032 | 57 | 347 | 0.9 | 5.2 | 0.00 | 0.00 | 0.00 | 65 | 1017.4 |
| 20260507191533 | 57 | 333 | 0.0 | 5.2 | 0.00 | 0.00 | 0.00 | 64 | 1017.3 |
| 20260507191035 | 57 | 24 | 1.7 | 4.3 | 0.00 | 0.00 | 0.00 | 63 | 1017.3 |
| 20260507190532 | 57 | 49 | 0.9 | 3.5 | 0.00 | 0.00 | 0.00 | 63 | 1017.3 |
| 20260507190036 | 57 | 51 | 0.9 | 4.3 | 0.00 | 0.00 | 0.00 | 62 | 1017.3 |
| 20260507185530 | 58 | 46 | 0.9 | 3.5 | 0.00 | 0.00 | 0.00 | 62 | 1017.3 |
| 20260507185033 | 58 | 22 | 0.9 | 2.6 | 0.00 | 0.00 | 0.00 | 62 | 1017.3 |
| 20260507184531 | 58 | 324 | 0.0 | 2.6 | 0.00 | 0.00 | 0.00 | 61 | 1017.3 |
| 20260507184029 | 58 | 303 | 0.0 | 2.6 | 0.00 | 0.00 | 0.00 | 61 | 1017.3 |
| 20260507183530 | 58 | 31 | 0.0 | 2.6 | 0.00 | 0.00 | 0.00 | 61 | 1017.3 |
| 20260507183037 | 58 | 307 | 0.0 | 2.6 | 0.00 | 0.00 | 0.00 | 61 | 1017.2 |
| 20260507182530 | 58 | 360 | 0.0 | 4.3 | 0.00 | 0.00 | 0.00 | 61 | 1017.3 |
| 20260507182030 | 58 | 26 | 0.0 | 4.3 | 0.00 | 0.00 | 0.00 | 60 | 1017.2 |
| 20260507181533 | 58 | 344 | 0.0 | 3.5 | 0.00 | 0.00 | 0.00 | 60 | 1017.2 |
| 20260507181029 | 58 | 28 | 0.9 | 3.5 | 0.00 | 0.00 | 0.00 | 59 | 1017.2 |
| 20260507180530 | 58 | 14 | 0.9 | 3.5 | 0.00 | 0.00 | 0.00 | 58 | 1017.2 |
| 20260507180029 | 58 | 39 | 0.9 | 2.6 | 0.00 | 0.00 | 0.00 | 58 | 1017.2 |
| 20260507175531 | 58 | 56 | 0.0 | 2.6 | 0.00 | 0.00 | 0.00 | 58 | 1017.2 |
| 20260507175027 | 58 | 59 | 0.9 | 2.6 | 0.00 | 0.00 | 0.00 | 57 | 1017.2 |
| 20260507174528 | 58 | 300 | 0.9 | 2.6 | 0.00 | 0.00 | 0.00 | 56 | 1017.2 |
| 20260507174027 | 58 | 292 | 0.9 | 2.6 | 0.00 | 0.00 | 0.00 | 56 | 1017.2 |
| 20260507173526 | 58 | 26 | 0.0 | 4.3 | 0.00 | 0.00 | 0.00 | 57 | 1017.2 |
| 20260507173027 | 58 | 35 | 0.0 | 4.3 | 0.00 | 0.00 | 0.00 | 56 | 1017.1 |
| 20260507172527 | 58 | 318 | 0.9 | 4.3 | 0.00 | 0.00 | 0.00 | 56 | 1017.2 |
| 20260507172026 | 59 | 74 | 0.9 | 4.3 | 0.00 | 0.00 | 0.00 | 56 | 1017.1 |
| 20260507171526 | 59 | 64 | 2.6 | 4.3 | 0.00 | 0.00 | 0.00 | 56 | 1017.1 |
| 20260507171026 | 59 | 29 | 0.9 | 5.2 | 0.00 | 0.00 | 0.00 | 57 | 1017.1 |
| 20260507170526 | 59 | 51 | 1.7 | 3.5 | 0.00 | 0.00 | 0.00 | 57 | 1017.1 |
| 20260507170027 | 59 | 298 | 0.9 | 4.3 | 0.00 | 0.00 | 0.00 | 57 | 1017.1 |
| 20260507165525 | 59 | 290 | 0.9 | 4.3 | 0.00 | 0.00 | 0.00 | 57 | 1017.1 |
| 20260507165025 | 59 | 57 | 0.9 | 3.5 | 0.00 | 0.00 | 0.00 | 57 | 1017.0 |
| 20260507164525 | 59 | 323 | 0.9 | 3.5 | 0.00 | 0.00 | 0.00 | 56 | 1017.0 |
| 20260507164024 | 59 | 68 | 0.9 | 6.1 | 0.00 | 0.00 | 0.00 | 55 | 1017.0 |
| 20260507163527 | 59 | 31 | 1.7 | 6.1 | 0.00 | 0.00 | 0.00 | 54 | 1017.0 |
| 20260507163027 | 59 | 339 | 1.7 | 5.2 | 0.00 | 0.00 | 0.00 | 54 | 1017.1 |
| 20260507162525 | 59 | 30 | 0.9 | 4.3 | 0.00 | 0.00 | 0.00 | 54 | 1017.0 |
| 20260507162028 | 59 | 23 | 0.9 | 4.3 | 0.00 | 0.00 | 0.00 | 54 | 1017.0 |
| 20260507161529 | 59 | 61 | 0.0 | 4.3 | 0.00 | 0.00 | 0.00 | 54 | 1017.1 |
| 20260507161023 | 60 | 59 | 1.7 | 4.3 | 0.00 | 0.00 | 0.00 | 53 | 1017.0 |
| 20260507160524 | 60 | 5 | 0.9 | 2.6 | 0.00 | 0.00 | 0.00 | 54 | 1017.0 |
| 20260507160026 | 60 | 341 | 0.0 | 5.2 | 0.00 | 0.00 | 0.00 | 53 | 1016.9 |
| 20260507155523 | 60 | 65 | 0.9 | 5.2 | 0.00 | 0.00 | 0.00 | 53 | 1016.9 |
| 20260507155024 | 60 | 293 | 0.9 | 3.5 | 0.00 | 0.00 | 0.00 | 53 | 1016.9 |
| 20260507154527 | 60 | 67 | 0.9 | 3.5 | 0.00 | 0.00 | 0.00 | 52 | 1016.9 |
| 20260507154024 | 60 | 293 | 1.7 | 3.5 | 0.00 | 0.00 | 0.00 | 50 | 1016.9 |
| 20260507153522 | 60 | 304 | 0.0 | 4.3 | 0.00 | 0.00 | 0.00 | 50 | 1016.9 |
| 20260507153024 | 60 | 80 | 0.9 | 4.3 | 0.00 | 0.00 | 0.00 | 50 | 1016.8 |
| 20260507152521 | 60 | 65 | 0.9 | 3.5 | 0.00 | 0.00 | 0.00 | 51 | 1016.8 |
| 20260507152021 | 60 | 360 | 0.0 | 4.3 | 0.00 | 0.00 | 0.00 | 50 | 1016.8 |
| 20260507151525 | 60 | 12 | 1.7 | 5.2 | 0.00 | 0.00 | 0.00 | 50 | 1016.8 |
| 20260507151021 | 60 | 309 | 1.7 | 5.2 | 0.00 | 0.00 | 0.00 | 50 | 1016.8 |
| 20260507150521 | 60 | 58 | 0.9 | 5.2 | 0.00 | 0.00 | 0.00 | 51 | 1016.8 |
| 20260507150023 | 61 | 46 | 0.9 | 3.5 | 0.00 | 0.00 | 0.00 | 51 | 1016.7 |
| 20260507145520 | 61 | 53 | 0.9 | 3.5 | 0.00 | 0.00 | 0.00 | 49 | 1016.7 |
| 20260507145020 | 61 | 312 | 0.0 | 6.1 | 0.00 | 0.00 | 0.00 | 48 | 1016.7 |
| 20260507144527 | 62 | 53 | 0.9 | 6.1 | 0.00 | 0.00 | 0.00 | 47 | 1016.7 |
| 20260507144020 | 62 | 292 | 0.9 | 3.5 | 0.00 | 0.00 | 0.00 | 46 | 1016.6 |
| 20260507143520 | 62 | 39 | 0.9 | 2.6 | 0.00 | 0.00 | 0.00 | 45 | 1016.6 |
| 20260507143019 | 62 | 322 | 0.0 | 1.7 | 0.00 | 0.00 | 0.00 | 44 | 1016.7 |
| 20260507142520 | 62 | 71 | 0.9 | 4.3 | 0.00 | 0.00 | 0.00 | 45 | 1016.7 |
| 20260507142021 | 63 | 70 | 1.7 | 5.2 | 0.00 | 0.00 | 0.00 | 43 | 1016.7 |
| 20260507141518 | 63 | 63 | 0.9 | 7.0 | 0.00 | 0.00 | 0.00 | 44 | 1016.7 |
| 20260507141017 | 62 | 63 | 0.9 | 7.0 | 0.00 | 0.00 | 0.00 | 46 | 1016.8 |
| 20260507140518 | 62 | 72 | 1.7 | 4.3 | 0.00 | 0.00 | 0.00 | 47 | 1016.9 |
| 20260507140015 | 62 | 9 | 1.7 | 7.0 | 0.00 | 0.00 | 0.00 | 46 | 1017.0 |
| 20260507135519 | 61 | 288 | 1.7 | 7.0 | 0.00 | 0.00 | 0.00 | 48 | 1017.0 |
| 20260507135014 | 61 | 286 | 0.0 | 3.5 | 0.00 | 0.00 | 0.00 | 49 | 1017.0 |
| 20260507134514 | 61 | 81 | 1.7 | 3.5 | 0.00 | 0.00 | 0.00 | 49 | 1017.0 |
| 20260507134014 | 60 | 44 | 0.0 | 7.0 | 0.00 | 0.00 | 0.00 | 50 | 1017.0 |
| 20260507133516 | 60 | 297 | 0.9 | 7.0 | 0.00 | 0.00 | 0.00 | 52 | 1017.0 |
| 20260507133014 | 60 | 70 | 1.7 | 5.2 | 0.00 | 0.00 | 0.00 | 52 | 1017.1 |
| 20260507132515 | 60 | 33 | 0.9 | 5.2 | 0.00 | 0.00 | 0.00 | 53 | 1017.1 |
| 20260507132014 | 60 | 69 | 1.7 | 4.3 | 0.00 | 0.00 | 0.00 | 53 | 1017.0 |
| 20260507131523 | 60 | 63 | 0.9 | 4.3 | 0.00 | 0.00 | 0.00 | 51 | 1017.0 |
| 20260507131014 | 59 | 285 | 0.9 | 4.3 | 0.00 | 0.00 | 0.00 | 49 | 1017.0 |
| 20260507130512 | 59 | 274 | 1.7 | 4.3 | 0.00 | 0.00 | 0.00 | 49 | 1017.0 |
| 20260507130012 | 59 | 74 | 0.9 | 6.1 | 0.00 | 0.00 | 0.00 | 52 | 1017.0 |
| 20260507125514 | 59 | 80 | 0.9 | 6.1 | 0.00 | 0.00 | 0.00 | 51 | 1016.9 |
| 20260507125012 | 59 | 62 | 0.9 | 3.5 | 0.00 | 0.00 | 0.00 | 51 | 1017.0 |
| 20260507124512 | 60 | 333 | 0.9 | 6.1 | 0.00 | 0.00 | 0.00 | 51 | 1017.0 |
| 20260507124011 | 60 | 33 | 1.7 | 6.1 | 0.00 | 0.00 | 0.00 | 50 | 1017.0 |
| 20260507123512 | 60 | 64 | 1.7 | 7.0 | 0.00 | 0.00 | 0.00 | 51 | 1016.9 |
| 20260507123012 | 60 | 67 | 2.6 | 7.0 | 0.00 | 0.00 | 0.00 | 49 | 1016.9 |
| 20260507122511 | 60 | 5 | 0.9 | 5.2 | 0.00 | 0.00 | 0.00 | 49 | 1016.9 |
| 20260507122011 | 61 | 283 | 0.9 | 2.6 | 0.00 | 0.00 | 0.00 | 49 | 1016.9 |
| 20260507121511 | 61 | 332 | 0.0 | 1.7 | 0.00 | 0.00 | 0.00 | 51 | 1016.9 |
| 20260507121011 | 61 | 360 | 0.0 | 3.5 | 0.00 | 0.00 | 0.00 | 49 | 1016.9 |
| 20260507120509 | 60 | 134 | 0.9 | 3.5 | 0.00 | 0.00 | 0.00 | 51 | 1017.0 |
| 20260507120010 | 60 | 36 | 0.0 | 2.6 | 0.00 | 0.00 | 0.00 | 50 | 1017.0 |
| 20260507115510 | 60 | 15 | 0.0 | 2.6 | 0.00 | 0.00 | 0.00 | 48 | 1016.9 |
| 20260507115010 | 60 | 297 | 0.9 | 3.5 | 0.00 | 0.00 | 0.00 | 48 | 1017.0 |
| 20260507114510 | 60 | 305 | 0.9 | 3.5 | 0.00 | 0.00 | 0.00 | 48 | 1017.0 |
| 20260507114009 | 60 | 286 | 0.9 | 4.3 | 0.00 | 0.00 | 0.00 | 48 | 1017.0 |
| 20260507113509 | 60 | 62 | 0.9 | 4.3 | 0.00 | 0.00 | 0.00 | 49 | 1017.0 |
| 20260507113009 | 61 | 62 | 0.9 | 7.0 | 0.00 | 0.00 | 0.00 | 49 | 1017.0 |
| 20260507112508 | 61 | 288 | 0.9 | 7.0 | 0.00 | 0.00 | 0.00 | 47 | 1017.0 |
| 20260507112008 | 62 | 46 | 1.7 | 7.0 | 0.00 | 0.00 | 0.00 | 48 | 1017.0 |
| 20260507111509 | 62 | 286 | 1.7 | 5.2 | 0.00 | 0.00 | 0.00 | 46 | 1017.0 |
| 20260507111008 | 62 | 298 | 0.9 | 4.3 | 0.00 | 0.00 | 0.00 | 47 | 1017.0 |
| 20260507110506 | 61 | 5 | 1.7 | 6.1 | 0.00 | 0.00 | 0.00 | 48 | 1017.0 |
| 20260507110005 | 61 | 242 | 1.7 | 4.3 | 0.00 | 0.00 | 0.00 | 48 | 1017.0 |
| 20260507105504 | 60 | 267 | 0.9 | 4.3 | 0.00 | 0.00 | 0.00 | 49 | 1017.1 |
| 20260507105004 | 60 | 344 | 0.9 | 4.3 | 0.00 | 0.00 | 0.00 | 49 | 1017.1 |
| 20260507104503 | 60 | 20 | 0.9 | 5.2 | 0.00 | 0.00 | 0.00 | 51 | 1017.2 |
| 20260507104003 | 60 | 284 | 0.9 | 5.2 | 0.00 | 0.00 | 0.00 | 49 | 1017.2 |
| 20260507103503 | 60 | 317 | 1.7 | 5.2 | 0.00 | 0.00 | 0.00 | 49 | 1017.1 |
| 20260507103001 | 60 | 112 | 0.9 | 5.2 | 0.00 | 0.00 | 0.00 | 52 | 1017.1 |
| 20260507102600 | 61 | 68 | 1.7 | 5.2 | 0.00 | 0.00 | 0.00 | 51 | 1017.2 |
| 20260507102059 | 60 | 27 | 0.0 | 5.2 | 0.00 | 0.00 | 0.00 | 54 | 1017.1 |
| 20260507101601 | 59 | 252 | 0.9 | 5.2 | 0.00 | 0.00 | 0.00 | 53 | 1017.2 |
| 20260507101056 | 59 | 42 | 0.9 | 7.0 | 0.00 | 0.00 | 0.00 | 53 | 1017.1 |
| 20260507100554 | 59 | 275 | 1.7 | 6.1 | 0.00 | 0.00 | 0.00 | 54 | 1017.1 |
| 20260507100106 | 59 | 44 | 0.0 | 6.1 | 0.00 | 0.00 | 0.00 | 56 | 1017.1 |
| 20260507095554 | 58 | 276 | 1.7 | 6.1 | 0.00 | 0.00 | 0.00 | 56 | 1017.1 |
| 20260507095051 | 58 | 281 | 1.7 | 4.3 | 0.00 | 0.00 | 0.00 | 57 | 1017.1 |
| 20260507094551 | 58 | 306 | 0.9 | 3.5 | 0.00 | 0.00 | 0.00 | 58 | 1017.0 |
| 20260507094049 | 58 | 55 | 0.9 | 3.5 | 0.00 | 0.00 | 0.00 | 58 | 1017.0 |
| 20260507093548 | 57 | 55 | 0.9 | 3.5 | 0.00 | 0.00 | 0.00 | 58 | 1017.0 |
| 20260507093047 | 57 | 317 | 1.7 | 6.1 | 0.00 | 0.00 | 0.00 | 58 | 1016.9 |
| 20260507092546 | 58 | 292 | 1.7 | 4.3 | 0.00 | 0.00 | 0.00 | 59 | 1017.0 |
| 20260507092043 | 57 | 114 | 1.7 | 6.1 | 0.00 | 0.00 | 0.00 | 59 | 1017.0 |
| 20260507091542 | 57 | 277 | 1.7 | 6.1 | 0.00 | 0.00 | 0.00 | 60 | 1016.9 |
| 20260507091042 | 57 | 285 | 1.7 | 4.3 | 0.00 | 0.00 | 0.00 | 60 | 1016.9 |
| 20260507090641 | 57 | 287 | 1.7 | 5.2 | 0.00 | 0.00 | 0.00 | 59 | 1016.9 |
| 20260507090044 | 57 | 67 | 2.6 | 5.2 | 0.00 | 0.00 | 0.00 | 61 | 1016.9 |
| 20260507085539 | 56 | 294 | 0.9 | 5.2 | 0.00 | 0.00 | 0.00 | 60 | 1016.9 |
| 20260507085038 | 56 | 77 | 1.7 | 7.0 | 0.00 | 0.00 | 0.00 | 60 | 1016.9 |
| 20260507084545 | 56 | 274 | 1.7 | 7.0 | 0.00 | 0.00 | 0.00 | 61 | 1016.9 |
| 20260507084036 | 56 | 63 | 0.9 | 5.2 | 0.00 | 0.00 | 0.00 | 61 | 1016.9 |
| 20260507083535 | 56 | 74 | 1.7 | 5.2 | 0.00 | 0.00 | 0.00 | 62 | 1016.9 |
| 20260507083046 | 55 | 72 | 2.6 | 5.2 | 0.00 | 0.00 | 0.00 | 62 | 1016.9 |
| 20260507082533 | 55 | 284 | 1.7 | 4.3 | 0.00 | 0.00 | 0.00 | 61 | 1016.9 |
| 20260507082030 | 56 | 288 | 0.9 | 3.5 | 0.00 | 0.00 | 0.00 | 60 | 1016.9 |
| 20260507081529 | 56 | 65 | 0.9 | 3.5 | 0.00 | 0.00 | 0.00 | 61 | 1016.8 |
| 20260507081029 | 55 | 313 | 0.9 | 4.3 | 0.00 | 0.00 | 0.00 | 61 | 1016.8 |
| 20260507080530 | 55 | 63 | 0.9 | 4.3 | 0.00 | 0.00 | 0.00 | 61 | 1016.8 |
| 20260507080025 | 54 | 81 | 0.9 | 4.3 | 0.00 | 0.00 | 0.00 | 62 | 1016.8 |
| 20260507075528 | 54 | 76 | 0.9 | 4.3 | 0.00 | 0.00 | 0.00 | 63 | 1016.7 |
| 20260507075025 | 54 | 53 | 0.9 | 4.3 | 0.00 | 0.00 | 0.00 | 64 | 1016.8 |
| 20260507074522 | 54 | 10 | 1.7 | 4.3 | 0.00 | 0.00 | 0.00 | 64 | 1016.7 |
| 20260507074021 | 53 | 5 | 1.7 | 5.2 | 0.00 | 0.00 | 0.00 | 66 | 1016.7 |